Location: Campillo
(40.8621°N, 4.2488°W)
Time: 12:56:15
(UTC+00:00)

Cosmos 1553 Rocket - Pass Details

Date: 11 May 2021
Orbit: 942 x 1007 km, 82.9° (Epoch: 14 June)

Event Time Altitude Azimuth Distance (km) Brightness Sun altitude
Rises 19:50:01 0° 179° (S) 3,605 6.7 -5.2°
Reaches altitude 10° 19:52:29 10° 177° (S) 2,670 6.0 -5.6°
Maximum altitude 19:58:33 72° 94° (E) 1,012 4.0 -6.6°
Drops below altitude 10° 20:04:46 10° 12° (NNE) 2,729 6.6 -7.6°
Sets 20:07:18 0° 10° (N) 3,690 7.3 -8.0°
